sat.trackr.live / text

‹ back to catalog

GPS BIII-5 (PRN 11)

NORAD 48859 · 2021-054A

PAYLOAD ACTIVE UNKNOWN

§ Identity

Operator
Country
US
Launch date
2021-06-17
Launch site
AFETR
Launch vehicle
Mass (kg)
RCS (m²)

Purposes: nav

External: N2YO · Heavens-Above · Gunter

§ Orbital elements

Epoch: 2026-09-09T14:10:00.000192Z

Period
717.98 min
Inclination
55.1276°
Eccentricity
0.0028486
Mean motion
2.00563844 rev/d
Perigee alt
20,106.5 km
Apogee alt
20,257.8 km
Semi-major
26,560.3 km
B*
0.0000e+0
RAAN
329.0639°
Arg perigee
230.5377°
Mean anomaly
1.8760°
Rev number
3,844

§ Raw data

GPS BIII-5  (PRN 11)1 48859U 21054A   26252.59027778 -.00000086  00000+0  00000+0 0  99912 48859  55.1276 329.0639 0028486 230.5377   1.8760  2.00563844 38442

JSON: /api/v1/satellites/48859 · /tle

For live sub-satellite position, see the globe view (requires WebGL).

§ Visibility from observer

Set your observer location to see the next 7 days of passes ≥ 10°. The values pass through the URL so the page stays shareable.

No JS? Fill the form by hand. The geolocation button needs JavaScript.